Time,TemperatureF,DewpointF,PressureIn,WindDirection,WindDirectionDegrees,WindSpeedMPH,WindSpeedGustMPH,Humidity,HourlyPrecipIn,Conditions,Clouds,dailyrainin,SoftwareType,DateUTC
2013-02-15 00:02:00,22.0,18.0,29.86,ESE,112,0.0,0.0,83,0.00,,,0.00,,2013-02-15 05:02:00,
2013-02-15 00:12:00,22.0,18.0,29.86,ESE,112,0.0,0.0,83,0.00,,,0.00,,2013-02-15 05:12:00,
2013-02-15 00:22:00,22.0,18.0,29.86,ESE,112,0.0,0.0,83,0.00,,,0.00,,2013-02-15 05:22:00,
2013-02-15 00:32:00,22.0,18.0,29.86,ESE,112,0.0,0.0,83,0.00,,,0.00,,2013-02-15 05:32:00,
2013-02-15 00:52:00,23.0,18.0,29.85,ESE,112,0.0,0.0,82,0.00,,,0.00,,2013-02-15 05:52:00,
2013-02-15 01:02:00,23.0,18.0,29.85,ESE,112,0.0,0.0,82,0.00,,,0.00,,2013-02-15 06:02:00,
2013-02-15 01:11:00,23.0,18.0,29.85,ESE,112,0.0,0.0,82,0.00,,,0.00,,2013-02-15 06:11:00,
2013-02-15 01:22:00,23.0,18.0,29.85,ESE,112,0.0,0.0,82,0.00,,,0.00,,2013-02-15 06:22:00,
2013-02-15 01:32:00,23.0,18.0,29.85,ESE,112,0.0,0.0,82,0.00,,,0.00,,2013-02-15 06:32:00,
2013-02-15 01:42:00,23.0,18.0,29.85,ESE,112,0.0,0.0,82,0.00,,,0.00,,2013-02-15 06:42:00,
2013-02-15 01:52:00,23.0,18.0,29.85,ESE,112,0.0,0.0,82,0.00,,,0.00,,2013-02-15 06:52:00,
2013-02-15 02:20:00,23.0,19.0,29.85,ESE,112,0.0,0.0,83,0.00,,,0.00,,2013-02-15 07:20:00,
2013-02-15 02:21:00,23.0,18.0,29.85,ESE,112,0.0,0.0,82,0.00,,,0.00,,2013-02-15 07:21:00,
2013-02-15 02:32:00,23.0,18.0,29.85,ESE,112,0.0,0.0,82,0.00,,,0.00,,2013-02-15 07:32:00,
2013-02-15 02:42:00,23.0,18.0,29.85,ESE,112,0.0,0.0,82,0.00,,,0.00,,2013-02-15 07:42:00,
2013-02-15 02:52:00,23.0,19.0,29.85,ESE,112,0.0,0.0,83,0.00,,,0.00,,2013-02-15 07:52:00,
2013-02-15 03:01:00,23.0,19.0,29.85,ESE,112,0.0,0.0,83,0.00,,,0.00,,2013-02-15 08:01:00,
2013-02-15 03:11:00,23.0,19.0,29.85,ESE,112,0.0,0.0,83,0.00,,,0.00,,2013-02-15 08:11:00,
2013-02-15 04:32:00,21.0,17.0,29.84,ESE,112,0.0,0.0,86,0.00,,,0.00,,2013-02-15 09:32:00,
2013-02-15 04:42:00,21.0,17.0,29.84,ESE,112,0.0,0.0,86,0.00,,,0.00,,2013-02-15 09:42:00,
2013-02-15 04:52:00,21.0,17.0,29.84,ESE,112,0.0,0.0,86,0.00,,,0.00,,2013-02-15 09:52:00,
2013-02-15 05:01:00,21.0,17.0,29.84,ESE,112,0.0,0.0,86,0.00,,,0.00,,2013-02-15 10:01:00,
2013-02-15 05:11:00,21.0,17.0,29.84,ESE,112,0.0,0.0,86,0.00,,,0.00,,2013-02-15 10:11:00,
2013-02-15 06:01:00,21.0,17.0,29.83,ESE,112,0.0,0.0,85,0.00,,,0.00,,2013-02-15 11:01:00,
2013-02-15 06:11:00,21.0,17.0,29.83,ESE,112,0.0,0.0,85,0.00,,,0.00,,2013-02-15 11:11:00,
2013-02-15 06:23:00,21.0,17.0,29.83,ESE,112,0.0,0.0,85,0.00,,,0.00,,2013-02-15 11:23:00,
2013-02-15 06:32:00,21.0,17.0,29.83,ESE,112,0.0,0.0,85,0.00,,,0.00,,2013-02-15 11:32:00,
2013-02-15 16:32:00,45.0,27.0,29.75,South,191,0.0,0.0,48,0.00,,,0.00,,2013-02-15 21:32:00,
2013-02-15 16:42:00,45.0,27.0,29.75,South,191,0.0,0.0,48,0.00,,,0.00,,2013-02-15 21:42:00,
2013-02-15 16:52:00,45.0,27.0,29.75,South,191,0.0,0.0,48,0.00,,,0.00,,2013-02-15 21:52:00,
2013-02-15 17:02:00,45.0,27.0,29.75,South,191,0.0,0.0,48,0.00,,,0.00,,2013-02-15 22:02:00,
2013-02-15 17:11:00,40.0,26.0,29.76,SSW,200,0.0,0.0,58,0.00,,,0.00,,2013-02-15 22:11:00,
2013-02-15 17:32:00,40.0,26.0,29.76,SSW,200,0.0,0.0,58,0.00,,,0.00,,2013-02-15 22:32:00,
2013-02-15 17:42:00,40.0,26.0,29.76,SSW,200,0.0,0.0,58,0.00,,,0.00,,2013-02-15 22:42:00,
2013-02-15 17:52:00,40.0,26.0,29.76,SSW,200,0.0,0.0,58,0.00,,,0.00,,2013-02-15 22:52:00,
2013-02-15 18:02:00,40.0,26.0,29.76,SSW,200,0.0,0.0,58,0.00,,,0.00,,2013-02-15 23:02:00,
2013-02-15 18:41:00,31.0,25.0,29.78,SSW,200,0.0,2.0,79,0.00,,,0.00,,2013-02-15 23:41:00,
2013-02-15 19:02:00,31.0,25.0,29.78,SSW,200,0.0,2.0,79,0.00,,,0.00,,2013-02-16 00:02:00,
2013-02-15 19:11:00,31.0,25.0,29.78,SSW,200,0.0,2.0,79,0.00,,,0.00,,2013-02-16 00:11:00,
2013-02-15 19:22:00,31.0,25.0,29.78,SSW,200,0.0,2.0,79,0.00,,,0.00,,2013-02-16 00:22:00,
2013-02-15 19:32:00,31.0,25.0,29.78,SSW,200,0.0,2.0,79,0.00,,,0.00,,2013-02-16 00:32:00,
2013-02-15 19:52:00,29.0,25.0,29.79,SSW,200,0.0,0.0,84,0.00,,,0.00,,2013-02-16 00:52:00,
2013-02-15 20:02:00,29.0,25.0,29.79,SSW,200,0.0,0.0,84,0.00,,,0.00,,2013-02-16 01:02:00,
2013-02-15 20:11:00,29.0,25.0,29.79,SSW,200,0.0,0.0,84,0.00,,,0.00,,2013-02-16 01:11:00,
2013-02-15 20:21:00,29.0,25.0,29.79,SSW,200,0.0,0.0,86,0.00,,,0.00,,2013-02-16 01:21:00,
2013-02-15 20:32:00,29.0,25.0,29.79,SSW,200,0.0,0.0,86,0.00,,,0.00,,2013-02-16 01:32:00,
2013-02-15 20:42:00,29.0,25.0,29.79,SSW,200,0.0,0.0,86,0.00,,,0.00,,2013-02-16 01:42:00,
2013-02-15 20:52:00,28.0,24.0,29.80,SSW,200,0.0,0.0,84,0.00,,,0.00,,2013-02-16 01:52:00,
2013-02-15 21:01:00,28.0,24.0,29.80,SSW,200,0.0,0.0,84,0.00,,,0.00,,2013-02-16 02:01:00,
2013-02-15 21:11:00,28.0,24.0,29.80,SSW,200,0.0,0.0,84,0.00,,,0.00,,2013-02-16 02:11:00,
2013-02-15 21:21:00,28.0,24.0,29.80,SSW,200,0.0,0.0,84,0.00,,,0.00,,2013-02-16 02:21:00,
2013-02-15 21:32:00,27.0,23.0,29.80,SSW,200,0.0,0.0,85,0.00,,,0.00,,2013-02-16 02:32:00,
2013-02-15 21:42:00,27.0,23.0,29.80,SSW,200,0.0,0.0,85,0.00,,,0.00,,2013-02-16 02:42:00,
2013-02-15 21:52:00,27.0,23.0,29.80,SSW,200,0.0,0.0,86,0.00,,,0.00,,2013-02-16 02:52:00,
2013-02-15 22:02:00,27.0,23.0,29.80,SSW,200,0.0,0.0,86,0.00,,,0.00,,2013-02-16 03:02:00,
2013-02-15 22:11:00,27.0,23.0,29.80,SSW,200,0.0,0.0,86,0.00,,,0.00,,2013-02-16 03:11:00,
2013-02-15 22:21:00,27.0,23.0,29.80,SSW,200,0.0,0.0,86,0.00,,,0.00,,2013-02-16 03:21:00,
2013-02-15 22:32:00,26.0,22.0,29.80,SSW,200,0.0,0.0,86,0.00,,,0.00,,2013-02-16 03:32:00,
2013-02-15 22:42:00,26.0,22.0,29.80,SSW,200,0.0,0.0,86,0.00,,,0.00,,2013-02-16 03:42:00,
2013-02-15 22:52:00,26.0,22.0,29.80,SSW,200,0.0,0.0,86,0.00,,,0.00,,2013-02-16 03:52:00,
2013-02-15 23:01:00,26.0,22.0,29.80,SSW,200,0.0,0.0,86,0.00,,,0.00,,2013-02-16 04:01:00,